TimeCDT,TemperatureF,Dew PointF,Humidity,Sea Level PressureIn,VisibilityMPH,Wind Direction,Wind SpeedMPH,Gust SpeedMPH,PrecipitationIn,Events,Conditions,WindDirDegrees,DateUTC
12:15 AM,41.5,32.7,71,30.20,10.0,NW,3.5,-,N/A,,Overcast,310,2012-10-07 05:15:00
12:35 AM,41.4,32.5,71,30.20,10.0,NW,6.9,-,N/A,,Overcast,310,2012-10-07 05:35:00
12:55 AM,41.4,32.7,71,30.21,10.0,WNW,6.9,-,N/A,,Overcast,300,2012-10-07 05:55:00
1:15 AM,41.5,32.4,70,30.21,10.0,NW,8.1,-,N/A,,Overcast,310,2012-10-07 06:15:00
1:35 AM,41.4,32.4,70,30.21,10.0,NW,6.9,-,N/A,,Overcast,320,2012-10-07 06:35:00
1:55 AM,41.2,32.5,71,30.21,10.0,NW,6.9,-,N/A,,Overcast,320,2012-10-07 06:55:00
2:15 AM,41.0,32.9,73,30.21,10.0,NW,4.6,-,N/A,,Overcast,310,2012-10-07 07:15:00
2:35 AM,40.6,33.1,74,30.21,10.0,NW,5.8,-,N/A,,Overcast,310,2012-10-07 07:35:00
2:55 AM,40.6,33.3,75,30.21,10.0,NW,4.6,-,N/A,,Overcast,310,2012-10-07 07:55:00
3:15 AM,40.6,33.4,75,30.21,10.0,NW,4.6,-,N/A,,Overcast,310,2012-10-07 08:15:00
3:35 AM,40.5,33.3,75,30.20,10.0,NW,3.5,-,N/A,,Overcast,320,2012-10-07 08:35:00
3:55 AM,40.5,33.6,77,30.20,10.0,WNW,4.6,-,N/A,,Overcast,300,2012-10-07 08:55:00
4:15 AM,40.1,34.3,80,30.21,10.0,WNW,4.6,-,N/A,,Overcast,290,2012-10-07 09:15:00
4:35 AM,40.1,34.0,79,30.21,10.0,WNW,3.5,-,N/A,,Overcast,300,2012-10-07 09:35:00
4:55 AM,39.9,34.0,79,30.21,10.0,West,3.5,-,N/A,,Overcast,280,2012-10-07 09:55:00
5:15 AM,39.2,34.7,84,30.20,10.0,WNW,4.6,-,N/A,,Overcast,290,2012-10-07 10:15:00
5:35 AM,39.2,34.0,82,30.20,10.0,NW,3.5,-,N/A,,Mostly Cloudy,310,2012-10-07 10:35:00
5:55 AM,38.7,34.3,84,30.20,10.0,WNW,3.5,-,N/A,,Scattered Clouds,290,2012-10-07 10:55:00
6:15 AM,38.5,34.9,87,30.20,10.0,West,3.5,-,N/A,,Scattered Clouds,270,2012-10-07 11:15:00
6:35 AM,38.3,34.5,86,30.21,10.0,Calm,Calm,-,N/A,,Scattered Clouds,0,2012-10-07 11:35:00
6:55 AM,38.5,34.7,86,30.21,10.0,West,4.6,-,N/A,,Mostly Cloudy,260,2012-10-07 11:55:00
7:15 AM,38.3,34.5,86,30.22,10.0,WSW,3.5,-,N/A,,Scattered Clouds,250,2012-10-07 12:15:00
7:35 AM,38.3,34.7,87,30.23,10.0,WSW,4.6,-,N/A,,Scattered Clouds,250,2012-10-07 12:35:00
7:55 AM,38.3,34.9,87,30.23,10.0,West,3.5,-,N/A,,Clear,260,2012-10-07 12:55:00
8:15 AM,40.3,35.2,82,30.23,10.0,West,6.9,-,N/A,,Clear,270,2012-10-07 13:15:00
8:35 AM,41.9,35.1,77,30.23,10.0,WNW,5.8,-,N/A,,Clear,290,2012-10-07 13:35:00
8:55 AM,43.2,34.5,72,30.24,10.0,NW,8.1,-,N/A,,Clear,320,2012-10-07 13:55:00
9:15 AM,44.6,33.8,66,30.24,10.0,WNW,6.9,-,N/A,,Clear,300,2012-10-07 14:15:00
9:35 AM,45.7,33.6,63,30.25,10.0,NW,6.9,-,N/A,,Clear,320,2012-10-07 14:35:00
9:55 AM,46.8,32.2,57,30.25,10.0,NNW,8.1,-,N/A,,Clear,330,2012-10-07 14:55:00
10:15 AM,47.5,30.7,52,30.24,10.0,NW,6.9,-,N/A,,Scattered Clouds,310,2012-10-07 15:15:00
10:35 AM,48.7,31.5,51,30.24,10.0,North,4.6,-,N/A,,Mostly Cloudy,350,2012-10-07 15:35:00
10:55 AM,48.6,31.3,51,30.25,10.0,NW,6.9,-,N/A,,Mostly Cloudy,320,2012-10-07 15:55:00
11:15 AM,48.9,30.7,50,30.25,10.0,WNW,9.2,16.1,N/A,,Mostly Cloudy,300,2012-10-07 16:15:00
11:35 AM,47.7,29.3,49,30.25,10.0,WNW,10.4,-,N/A,,Mostly Cloudy,290,2012-10-07 16:35:00
11:55 AM,49.1,31.3,50,30.26,10.0,NW,10.4,-,N/A,,Overcast,310,2012-10-07 16:55:00
12:15 PM,48.2,29.3,48,30.25,10.0,NW,11.5,16.1,N/A,,Overcast,320,2012-10-07 17:15:00
12:35 PM,49.8,30.7,48,30.24,10.0,WNW,6.9,-,N/A,,Mostly Cloudy,300,2012-10-07 17:35:00
12:55 PM,49.8,30.9,48,30.23,10.0,West,5.8,-,N/A,,Scattered Clouds,270,2012-10-07 17:55:00
1:15 PM,48.7,29.8,48,30.23,10.0,NW,6.9,-,N/A,,Mostly Cloudy,310,2012-10-07 18:15:00
1:35 PM,49.3,29.1,46,30.22,10.0,NW,8.1,-,N/A,,Mostly Cloudy,320,2012-10-07 18:35:00
1:55 PM,50.5,29.5,44,30.21,10.0,NW,9.2,18.4,N/A,,Overcast,320,2012-10-07 18:55:00
2:15 PM,50.0,28.4,43,30.21,10.0,NNW,11.5,16.1,N/A,,Mostly Cloudy,330,2012-10-07 19:15:00
2:35 PM,52.7,30.0,42,30.21,10.0,NW,9.2,-,N/A,,Mostly Cloudy,310,2012-10-07 19:35:00
2:55 PM,52.0,28.9,41,30.20,10.0,West,6.9,17.3,N/A,,Mostly Cloudy,260,2012-10-07 19:55:00
3:15 PM,52.2,28.8,41,30.20,10.0,WNW,8.1,-,N/A,,Mostly Cloudy,290,2012-10-07 20:15:00
3:35 PM,52.3,28.6,40,30.19,10.0,North,8.1,-,N/A,,Mostly Cloudy,350,2012-10-07 20:35:00
3:55 PM,50.7,28.6,42,30.19,10.0,NW,9.2,-,N/A,,Mostly Cloudy,320,2012-10-07 20:55:00
4:15 PM,52.2,29.1,41,30.18,10.0,West,5.8,-,N/A,,Scattered Clouds,280,2012-10-07 21:15:00
4:35 PM,52.0,27.7,39,30.18,10.0,Calm,Calm,-,N/A,,Mostly Cloudy,0,2012-10-07 21:35:00
4:55 PM,51.3,28.2,41,30.18,10.0,West,4.6,-,N/A,,Scattered Clouds,260,2012-10-07 21:55:00
5:15 PM,49.3,31.1,50,30.18,10.0,West,5.8,-,N/A,,Scattered Clouds,280,2012-10-07 22:15:00
5:35 PM,49.6,30.4,48,30.19,10.0,WNW,5.8,-,N/A,,Clear,290,2012-10-07 22:35:00
5:55 PM,49.3,29.1,46,30.18,10.0,NW,5.8,-,N/A,,Clear,320,2012-10-07 22:55:00
6:15 PM,47.1,31.5,55,30.19,10.0,West,3.5,-,N/A,,Clear,280,2012-10-07 23:15:00
6:35 PM,44.6,31.6,60,30.18,10.0,NW,3.5,-,N/A,,Clear,320,2012-10-07 23:35:00
6:55 PM,42.1,33.1,70,30.18,10.0,Calm,Calm,-,N/A,,Clear,0,2012-10-07 23:55:00
7:15 PM,40.6,33.8,77,30.19,10.0,Calm,Calm,-,N/A,,Clear,0,2012-10-08 00:15:00
7:35 PM,40.1,34.0,79,30.19,10.0,Calm,Calm,-,N/A,,Clear,0,2012-10-08 00:35:00
7:55 PM,38.8,34.2,83,30.20,10.0,Calm,Calm,-,N/A,,Clear,0,2012-10-08 00:55:00
8:15 PM,38.3,34.2,85,30.21,10.0,Calm,Calm,-,N/A,,Clear,0,2012-10-08 01:15:00
8:35 PM,37.6,33.8,86,30.21,10.0,Calm,Calm,-,N/A,,Clear,0,2012-10-08 01:35:00
8:55 PM,37.0,34.0,89,30.21,10.0,Calm,Calm,-,N/A,,Clear,0,2012-10-08 01:55:00
9:15 PM,36.3,33.8,91,30.21,10.0,Calm,Calm,-,N/A,,Clear,0,2012-10-08 02:15:00
9:35 PM,36.0,33.6,91,30.21,10.0,Calm,Calm,-,N/A,,Clear,0,2012-10-08 02:35:00
9:55 PM,35.2,33.4,93,30.21,10.0,Calm,Calm,-,N/A,,Clear,0,2012-10-08 02:55:00
10:15 PM,35.1,33.6,94,30.20,10.0,Calm,Calm,-,N/A,,Clear,0,2012-10-08 03:15:00
10:35 PM,35.6,33.8,93,30.21,10.0,Calm,Calm,-,N/A,,Clear,0,2012-10-08 03:35:00
10:55 PM,34.7,32.9,93,30.21,10.0,Calm,Calm,-,N/A,,Clear,0,2012-10-08 03:55:00
11:15 PM,34.7,32.9,93,30.21,10.0,Calm,Calm,-,N/A,,Clear,0,2012-10-08 04:15:00
11:35 PM,34.0,32.4,94,30.20,10.0,Calm,Calm,-,N/A,,Clear,0,2012-10-08 04:35:00
11:55 PM,33.8,32.5,95,30.20,10.0,Calm,Calm,-,N/A,,Clear,0,2012-10-08 04:55:00